DELTA 1 DEB, 10469

Orbit data source: Space-Track

DELTA 1 DEB, 10469 is space debris in LEO originally from a launch on Thu, 14 Jul 1977 UTC launched from the Air Force Eastern Test Range (AFETR). Debris objects in space refer to the collection of defunct objects orbiting the Earth. Examples of debris include non-operational satellites, rocket bodies, and fragments generated from explosions, collisions, or faulty payload assembly.

Loading next visibility...
Identifier
10469, 1977-065EB
Orbit
LEO
Country
Flag of USUS
Related business
Manufacturer
Unknown
Mission
Spacecraft
Bus & Motor
Unknown
Mass
Unknown
Launch date (UTC)
1977-07-14 (49 years ago)
Launch vehicle
Unknown
Launch site
Air Force Eastern Test Range (AFETR)
Object type
Payload
Rocket body
Debris
Shape & HBR
Unknown shape, 0.1 m
Radar Cross Section
Small (<0.1 m²)

Expand to show TLE details & history
Last TLE update: 6 hours ago

TLE from 6 hours ago
0 DELTA 1 DEB
1 10469U 77065EB  26133.17578014  .00000271  00000-0  22580-3 0  9993
2 10469  29.1156 154.5024 0866276  35.7805 329.7765 12.72336447265933
Epoch: 2026-05-13T04:13Z
TLE epoch observation values (Epoch: 2026-05-13T04:13:07.404Z)
Latitude
0.00004°
Longitude
-139.71796°
Altitude
807.443 km
Speed
7.717 km/s
True Right ascension
10h 18m 00s
True Declination
0° 00' 00"
Sunlit
Object was in daylight at epoch
Visualization orbit readout
Latitude
Unknown
Longitude
Unknown
Altitude
Unknown
Speed
Unknown
Apparent Right ascension
Unknown
Apparent Declination
Unknown
Sunlit
N/A
Visualization observer readout
Local Sidereal Time
18:20:50
Azimuth
Unknown
Elevation
Unknown
Doppler factor
Unknown
Orbital elements
Apogee altitude
2,047.884 km
Perigee altitude
704.414 km
Semi-major axis
7,754.286 km
Eccentricity
0.08663
Inclination
29.1156°
RAAN
154.5024°
Arg. of periapsis
35.7805°
True anomaly
324.27477°
Mean anomaly
329.7765°
Eccentric anomaly
327.07898°
Mean motion
3.17856 °/min
Orbital period
113.26 mins
BSTAR
0.0002258
Loading maneuver chart data...
Computing Atmospheric mass density...

Documentation

Showing up to 5 results
|